Time,TemperatureF,DewpointF,PressureIn,WindDirection,WindDirectionDegrees,WindSpeedMPH,WindSpeedGustMPH,Humidity,HourlyPrecipIn,Conditions,Clouds,dailyrainin,SolarRadiationWatts/m^2,SoftwareType,DateUTC
2013-01-31 00:03:00,69.0,66.0,-100.00,SSW,195,14.0,-999.0,89,0.00,,,-99.99,0.000000,,2013-01-31 05:03:00,
2013-01-31 00:11:00,69.0,66.0,-100.00,SSW,193,13.0,-999.0,90,0.00,,,-99.99,0.000000,,2013-01-31 05:11:00,
2013-01-31 00:22:00,69.0,66.0,-100.00,SSW,193,13.0,-999.0,90,0.00,,,-99.99,0.000000,,2013-01-31 05:22:00,
2013-01-31 00:32:00,69.0,66.0,-100.00,SSW,193,13.0,-999.0,90,0.00,,,-99.99,0.000000,,2013-01-31 05:32:00,
2013-01-31 00:42:00,69.0,67.0,-100.00,SSW,199,12.0,-999.0,90,0.00,,,-99.99,0.000000,,2013-01-31 05:42:00,
2013-01-31 00:52:00,69.0,67.0,-100.00,SSW,199,12.0,-999.0,90,0.00,,,-99.99,0.000000,,2013-01-31 05:52:00,
2013-01-31 01:01:00,69.0,67.0,-100.00,SSW,199,12.0,-999.0,90,0.00,,,-99.99,0.000000,,2013-01-31 06:01:00,
2013-01-31 01:11:00,69.0,67.0,-100.00,SSW,199,12.0,-999.0,90,0.00,,,-99.99,0.000000,,2013-01-31 06:11:00,
2013-01-31 09:03:00,58.0,57.0,-100.00,NNW,329,6.0,-999.0,96,0.03,,,-99.99,67.000000,,2013-01-31 14:03:00,
2013-01-31 09:11:00,58.0,57.0,-100.00,NNW,340,6.0,-999.0,95,0.00,,,-99.99,100.500000,,2013-01-31 14:11:00,
2013-01-31 09:22:00,58.0,57.0,-100.00,NNW,340,6.0,-999.0,95,0.00,,,-99.99,100.500000,,2013-01-31 14:22:00,
2013-01-31 09:32:00,58.0,56.0,-100.00,NNW,337,10.0,-999.0,93,0.00,,,-99.99,223.699997,,2013-01-31 14:32:00,
2013-01-31 09:42:00,60.0,56.0,-100.00,NNW,343,8.0,-999.0,88,0.00,,,-99.99,228.500000,,2013-01-31 14:42:00,
2013-01-31 09:52:00,60.0,56.0,-100.00,NNW,343,8.0,-999.0,88,0.00,,,-99.99,228.500000,,2013-01-31 14:52:00,
2013-01-31 10:03:00,59.0,56.0,-100.00,NW,324,6.0,-999.0,89,0.00,,,-99.99,241.199997,,2013-01-31 15:03:00,
2013-01-31 10:12:00,60.0,56.0,-100.00,NW,325,8.0,-999.0,85,0.00,,,-99.99,387.299988,,2013-01-31 15:12:00,
2013-01-31 10:22:00,60.0,56.0,-100.00,NW,325,8.0,-999.0,85,0.00,,,-99.99,387.299988,,2013-01-31 15:22:00,
2013-01-31 10:32:00,61.0,54.0,-100.00,NNW,329,8.0,-999.0,78,0.00,,,-99.99,502.600006,,2013-01-31 15:32:00,
2013-01-31 10:42:00,61.0,54.0,-100.00,NNW,329,8.0,-999.0,78,0.00,,,-99.99,502.600006,,2013-01-31 15:42:00,
2013-01-31 10:52:00,62.0,55.0,-100.00,NNW,333,8.0,-999.0,78,0.00,,,-99.99,418.899994,,2013-01-31 15:52:00,
2013-01-31 11:03:00,62.0,55.0,-100.00,NNW,339,8.0,-999.0,75,0.00,,,-99.99,582.400024,,2013-01-31 16:03:00,
2013-01-31 11:12:00,63.0,53.0,-100.00,NW,324,9.0,-999.0,69,0.00,,,-99.99,600.299988,,2013-01-31 16:12:00,
2013-01-31 11:22:00,63.0,53.0,-100.00,NW,324,9.0,-999.0,69,0.00,,,-99.99,600.299988,,2013-01-31 16:22:00,
2013-01-31 11:33:00,63.0,51.0,-100.00,NW,319,9.0,-999.0,65,0.00,,,-99.99,628.099976,,2013-01-31 16:33:00,
2013-01-31 11:42:00,63.0,51.0,-100.00,NW,319,9.0,-999.0,65,0.00,,,-99.99,628.099976,,2013-01-31 16:42:00,
2013-01-31 11:52:00,63.0,51.0,-100.00,NW,323,8.0,-999.0,63,0.00,,,-99.99,652.599976,,2013-01-31 16:52:00,
2013-01-31 12:03:00,63.0,50.0,-100.00,NNW,337,9.0,-999.0,60,0.00,,,-99.99,653.400024,,2013-01-31 17:03:00,
2013-01-31 12:13:00,64.0,48.0,-100.00,NNW,334,8.0,-999.0,56,0.00,,,-99.99,682.400024,,2013-01-31 17:13:00,
2013-01-31 12:23:00,64.0,48.0,-100.00,NNW,334,8.0,-999.0,56,0.00,,,-99.99,682.400024,,2013-01-31 17:23:00,
2013-01-31 12:32:00,65.0,47.0,-100.00,NNW,331,8.0,-999.0,51,0.00,,,-99.99,697.799988,,2013-01-31 17:32:00,
2013-01-31 12:43:00,65.0,45.0,-100.00,NNW,347,7.0,-999.0,47,0.00,,,-99.99,709.000000,,2013-01-31 17:43:00,
2013-01-31 12:53:00,65.0,45.0,-100.00,NNW,347,7.0,-999.0,47,0.00,,,-99.99,709.000000,,2013-01-31 17:53:00,
2013-01-31 13:03:00,65.0,45.0,-100.00,NNW,347,7.0,-999.0,47,0.00,,,-99.99,709.000000,,2013-01-31 18:03:00,
2013-01-31 13:13:00,65.0,44.0,-100.00,NNW,338,8.0,-999.0,46,0.00,,,-99.99,710.000000,,2013-01-31 18:13:00,
2013-01-31 13:22:00,65.0,44.0,-100.00,NNW,338,8.0,-999.0,46,0.00,,,-99.99,710.000000,,2013-01-31 18:22:00,
2013-01-31 13:32:00,65.0,44.0,-100.00,NNW,329,8.0,-999.0,44,0.00,,,-99.99,701.000000,,2013-01-31 18:32:00,
2013-01-31 13:43:00,65.0,43.0,-100.00,NW,324,9.0,-999.0,44,0.00,,,-99.99,700.000000,,2013-01-31 18:43:00,
2013-01-31 13:52:00,65.0,43.0,-100.00,NW,324,9.0,-999.0,44,0.00,,,-99.99,700.000000,,2013-01-31 18:52:00,
2013-01-31 14:02:00,66.0,43.0,-100.00,NNW,329,7.0,-999.0,43,0.00,,,-99.99,685.200012,,2013-01-31 19:02:00,
2013-01-31 14:12:00,66.0,42.0,-100.00,NW,318,7.0,-999.0,41,0.00,,,-99.99,663.700012,,2013-01-31 19:12:00,
2013-01-31 14:22:00,66.0,42.0,-100.00,NW,318,7.0,-999.0,41,0.00,,,-99.99,663.700012,,2013-01-31 19:22:00,
2013-01-31 14:32:00,66.0,42.0,-100.00,NW,316,7.0,-999.0,40,0.00,,,-99.99,635.299988,,2013-01-31 19:32:00,
2013-01-31 14:42:00,66.0,42.0,-100.00,NW,319,6.0,-999.0,41,0.00,,,-99.99,603.799988,,2013-01-31 19:42:00,
2013-01-31 14:52:00,66.0,42.0,-100.00,NW,319,6.0,-999.0,41,0.00,,,-99.99,603.799988,,2013-01-31 19:52:00,
2013-01-31 15:02:00,66.0,43.0,-100.00,NW,321,7.0,-999.0,42,0.00,,,-99.99,571.299988,,2013-01-31 20:02:00,
2013-01-31 15:12:00,66.0,42.0,-100.00,NW,319,5.0,-999.0,42,0.00,,,-99.99,551.200012,,2013-01-31 20:12:00,
2013-01-31 15:22:00,66.0,42.0,-100.00,NW,319,5.0,-999.0,42,0.00,,,-99.99,551.200012,,2013-01-31 20:22:00,
2013-01-31 15:32:00,66.0,43.0,-100.00,NW,317,7.0,-999.0,42,0.00,,,-99.99,512.599976,,2013-01-31 20:32:00,
2013-01-31 15:42:00,67.0,41.0,-100.00,NW,315,6.0,-999.0,39,0.00,,,-99.99,477.899994,,2013-01-31 20:42:00,
2013-01-31 15:52:00,67.0,41.0,-100.00,NW,315,6.0,-999.0,39,0.00,,,-99.99,477.899994,,2013-01-31 20:52:00,
2013-01-31 16:02:00,67.0,40.0,-100.00,NW,308,7.0,-999.0,37,0.00,,,-99.99,441.600006,,2013-01-31 21:02:00,
2013-01-31 16:12:00,66.0,38.0,-100.00,NW,307,7.0,-999.0,35,0.00,,,-99.99,394.000000,,2013-01-31 21:12:00,
2013-01-31 16:22:00,66.0,38.0,-100.00,NW,307,7.0,-999.0,35,0.00,,,-99.99,394.000000,,2013-01-31 21:22:00,
2013-01-31 16:32:00,66.0,37.0,-100.00,NW,307,9.0,-999.0,34,0.00,,,-99.99,338.899994,,2013-01-31 21:32:00,
2013-01-31 16:42:00,66.0,36.0,-100.00,NW,311,8.0,-999.0,33,0.00,,,-99.99,306.500000,,2013-01-31 21:42:00,
2013-01-31 16:52:00,66.0,36.0,-100.00,NW,311,8.0,-999.0,33,0.00,,,-99.99,306.500000,,2013-01-31 21:52:00,
2013-01-31 17:03:00,66.0,36.0,-100.00,NW,311,7.0,-999.0,33,0.00,,,-99.99,255.600006,,2013-01-31 22:03:00,
2013-01-31 17:11:00,66.0,36.0,-100.00,NW,311,7.0,-999.0,33,0.00,,,-99.99,255.600006,,2013-01-31 22:11:00,
2013-01-31 17:22:00,65.0,36.0,-100.00,NW,306,8.0,-999.0,33,0.00,,,-99.99,205.000000,,2013-01-31 22:22:00,
2013-01-31 17:33:00,64.0,37.0,-100.00,NW,315,7.0,-999.0,36,0.00,,,-99.99,154.600006,,2013-01-31 22:33:00,
2013-01-31 17:42:00,63.0,38.0,-100.00,NW,310,6.0,-999.0,38,0.00,,,-99.99,90.699997,,2013-01-31 22:42:00,
2013-01-31 17:52:00,63.0,38.0,-100.00,NW,310,6.0,-999.0,38,0.00,,,-99.99,90.699997,,2013-01-31 22:52:00,
2013-01-31 18:03:00,62.0,37.0,-100.00,NW,316,7.0,-999.0,38,0.00,,,-99.99,45.200001,,2013-01-31 23:03:00,
2013-01-31 18:12:00,60.0,35.0,-100.00,NNW,342,6.0,-999.0,37,0.00,,,-99.99,12.500000,,2013-01-31 23:12:00,
2013-01-31 18:22:00,60.0,35.0,-100.00,NNW,342,6.0,-999.0,37,0.00,,,-99.99,12.500000,,2013-01-31 23:22:00,
2013-01-31 18:32:00,60.0,35.0,-100.00,NNW,342,6.0,-999.0,37,0.00,,,-99.99,12.500000,,2013-01-31 23:32:00,
2013-01-31 18:42:00,56.0,38.0,-100.00,NNW,336,5.0,-999.0,50,0.00,,,-99.99,0.500000,,2013-01-31 23:42:00,
2013-01-31 18:52:00,56.0,38.0,-100.00,NNW,336,5.0,-999.0,50,0.00,,,-99.99,0.500000,,2013-01-31 23:52:00,
2013-01-31 19:01:00,54.0,40.0,-100.00,NW,323,5.0,-999.0,57,0.00,,,-99.99,0.000000,,2013-02-01 00:01:00,
2013-01-31 19:11:00,53.0,39.0,-100.00,NNW,336,6.0,-999.0,58,0.00,,,-99.99,0.000000,,2013-02-01 00:11:00,
2013-01-31 19:22:00,53.0,39.0,-100.00,NNW,336,6.0,-999.0,58,0.00,,,-99.99,0.000000,,2013-02-01 00:22:00,
2013-01-31 19:32:00,54.0,39.0,-100.00,NNW,343,6.0,-999.0,56,0.00,,,-99.99,0.000000,,2013-02-01 00:32:00,
2013-01-31 19:42:00,53.0,38.0,-100.00,NNW,336,6.0,-999.0,55,0.00,,,-99.99,0.000000,,2013-02-01 00:42:00,
2013-01-31 19:52:00,53.0,38.0,-100.00,NNW,336,6.0,-999.0,55,0.00,,,-99.99,0.000000,,2013-02-01 00:52:00,
2013-01-31 20:01:00,53.0,38.0,-100.00,NW,309,7.0,-999.0,55,0.00,,,-99.99,0.000000,,2013-02-01 01:01:00,
2013-01-31 20:11:00,53.0,38.0,-100.00,NW,309,7.0,-999.0,55,0.00,,,-99.99,0.000000,,2013-02-01 01:11:00,
2013-01-31 20:21:00,52.0,37.0,-100.00,NW,312,7.0,-999.0,56,0.00,,,-99.99,0.000000,,2013-02-01 01:21:00,
2013-01-31 20:32:00,52.0,37.0,-100.00,NW,313,7.0,-999.0,58,0.00,,,-99.99,0.000000,,2013-02-01 01:32:00,
2013-01-31 20:42:00,52.0,37.0,-100.00,NW,313,7.0,-999.0,58,0.00,,,-99.99,0.000000,,2013-02-01 01:42:00,
2013-01-31 20:52:00,51.0,38.0,-100.00,NW,315,7.0,-999.0,59,0.00,,,-99.99,0.000000,,2013-02-01 01:52:00,
2013-01-31 21:02:00,51.0,38.0,-100.00,NW,312,7.0,-999.0,62,0.00,,,-99.99,0.000000,,2013-02-01 02:02:00,
2013-01-31 21:11:00,50.0,39.0,-100.00,NW,309,7.0,-999.0,64,0.00,,,-99.99,0.000000,,2013-02-01 02:11:00,
2013-01-31 21:21:00,50.0,39.0,-100.00,NW,309,7.0,-999.0,64,0.00,,,-99.99,0.000000,,2013-02-01 02:21:00,
2013-01-31 21:32:00,50.0,39.0,-100.00,NW,315,8.0,-999.0,64,0.00,,,-99.99,0.000000,,2013-02-01 02:32:00,
2013-01-31 21:42:00,50.0,39.0,-100.00,NW,315,8.0,-999.0,64,0.00,,,-99.99,0.000000,,2013-02-01 02:42:00,
2013-01-31 21:52:00,50.0,38.0,-100.00,NW,316,8.0,-999.0,64,0.00,,,-99.99,0.000000,,2013-02-01 02:52:00,
2013-01-31 22:02:00,49.0,39.0,-100.00,NW,316,8.0,-999.0,66,0.00,,,-99.99,0.000000,,2013-02-01 03:02:00,
2013-01-31 22:12:00,49.0,39.0,-100.00,NW,312,8.0,-999.0,69,0.00,,,-99.99,0.000000,,2013-02-01 03:12:00,
2013-01-31 22:22:00,49.0,39.0,-100.00,NW,312,8.0,-999.0,69,0.00,,,-99.99,0.000000,,2013-02-01 03:22:00,
2013-01-31 22:33:00,48.0,39.0,-100.00,NW,314,7.0,-999.0,69,0.00,,,-99.99,0.000000,,2013-02-01 03:33:00,
2013-01-31 22:42:00,48.0,39.0,-100.00,NW,317,8.0,-999.0,71,0.00,,,-99.99,0.000000,,2013-02-01 03:42:00,
2013-01-31 22:52:00,48.0,39.0,-100.00,NW,317,8.0,-999.0,71,0.00,,,-99.99,0.000000,,2013-02-01 03:52:00,
2013-01-31 23:02:00,48.0,39.0,-100.00,NW,320,7.0,-999.0,71,0.00,,,-99.99,0.000000,,2013-02-01 04:02:00,
2013-01-31 23:11:00,48.0,39.0,-100.00,NW,323,7.0,-999.0,72,0.00,,,-99.99,0.000000,,2013-02-01 04:11:00,
2013-01-31 23:21:00,48.0,39.0,-100.00,NW,323,7.0,-999.0,72,0.00,,,-99.99,0.000000,,2013-02-01 04:21:00,
2013-01-31 23:32:00,47.0,39.0,-100.00,NW,322,7.0,-999.0,74,0.00,,,-99.99,0.000000,,2013-02-01 04:32:00,
2013-01-31 23:41:00,47.0,40.0,-100.00,NNW,327,8.0,-999.0,75,0.00,,,-99.99,0.000000,,2013-02-01 04:41:00,
2013-01-31 23:52:00,47.0,40.0,-100.00,NNW,327,8.0,-999.0,75,0.00,,,-99.99,0.000000,,2013-02-01 04:52:00,